#timestamp,LO_Frequency,Hit,StdDev 
1702720815.6,286047000.6,N
1702720835.5,286046999.8,N
1702720855.3,286047002.0,N
1702720875.1,286047000.0,N
1702720895.9,286047000.7,N
1702720915.7,286047000.6,N
1702720935.6,286046999.3,N
1702720955.4,286047001.1,N
1702720975.2,286047000.4,N
1702720995.1,286047001.2,N
1702720996.0,286047001.2,N
1702721015.8,286046998.3,N
1702721035.6,286047000.3,N
1702721055.5,286047000.3,N
1702721075.3,286046999.8,N
1702721095.2,286047000.1,N
1702721115.9,286046998.7,N
1702721135.7,286046998.7,N
1702721155.6,286046998.1,N
1702721175.4,286046998.3,N
1702721195.2,286046998.6,N
1702721215.1,286046999.0,N
1702721216.0,286046999.0,N
1702721235.8,286047000.6,N
1702721255.7,286047002.3,N
1702721275.5,286047001.1,N
1702721295.3,286047000.9,N
1702721315.2,286046998.6,N
1702721335.0,286047001.0,N
1702721335.9,286047001.0,N
1702721355.8,286047000.3,N
1702721375.6,286046999.7,N
1702721395.4,286046999.7,N
1702721415.3,286046999.7,N
1702721435.1,286047000.4,N
1702721455.8,286047000.9,N
1702721475.7,286046998.3,N
1702721495.5,286047001.1,N
1702721515.4,286047000.5,N
1702721535.2,286046999.0,N
1702721555.0,286046996.9,N
1702721555.9,286046996.9,N
1702721575.8,286046999.8,N
1702721595.6,286047000.3,N
1702721615.4,286047000.6,N
1702721635.3,286046998.6,N
1702721655.1,286047001.1,N
1702721675.9,286047000.9,N
1702721695.7,286047002.5,N
1702721715.5,286047002.2,N
1702721735.4,286047001.9,N
1702721755.2,286047004.4,Y
1702721775.0,286047001.4,P
1702721776.0,286047001.4,N
1702721795.8,286047004.0,P
1702721815.6,286047004.2,N
1702721835.5,286047003.2,N
1702721855.3,286047001.4,N
1702721875.1,286047004.2,N
1702721895.9,286047004.2,N
1702721915.7,286047004.3,N
1702721935.6,286047001.8,N
1702721955.4,286047002.6,N
1702721975.2,286047000.2,N
1702721995.1,286047000.2,N
1702721996.0,286047000.2,N
1702722015.8,286047000.9,N
1702722035.6,286047000.1,N
1702722055.5,286047004.1,N
1702722075.3,286047004.1,N
1702722095.2,286047003.8,N
1702722115.9,286047003.2,N
1702722135.7,286047001.9,N
1702722155.6,286047000.1,N
1702722175.4,286047002.4,N
1702722195.2,286047002.6,N
1702722215.1,286047002.7,N
1702722216.0,286047002.7,N
1702722235.8,286047001.0,N
1702722255.7,286047002.7,N
1702722275.5,286047002.6,N
1702722295.3,286047002.2,N
1702722315.2,286047000.5,N
1702722335.0,286047002.8,N
1702722335.9,286047002.8,N
1702722355.8,286046999.9,N
1702722375.6,286046999.9,N
1702722395.4,286047002.6,N
1702722415.3,286047000.1,N
1702722435.1,286047000.8,N
1702722455.8,286047000.2,N
1702722475.7,286047000.6,N
1702722495.5,286047000.7,N
1702722515.4,286047001.2,N
1702722535.2,286047000.2,N
1702722555.0,286047000.8,N
1702722556.0,286047000.8,N
1702722575.8,286046999.7,N
1702722595.6,286047002.5,N
1702722615.5,286047002.7,N
1702722635.3,286047003.8,Y
1702722655.2,286047002.3,P
1702722675.9,286046999.8,N
1702722695.7,286047000.4,N
1702722715.6,286046999.7,N
1702722735.4,286047000.3,N
1702722755.2,286047000.8,N
1702722775.1,286046998.2,N
1702722776.0,286046998.2,N
1702722795.8,286046998.1,N
1702722815.7,286046998.9,N
1702722835.5,286046997.0,N
1702722855.3,286046999.6,N
1702722875.2,286047000.6,N
1702722895.9,286047000.1,N
1702722915.7,286047000.5,N
1702722935.6,286046998.6,N
1702722955.4,286046998.6,N
1702722975.3,286046999.8,N
1702722995.1,286047002.8,N
1702722996.0,286047002.8,N
1702723015.8,286046999.8,N
1702723035.7,286047000.7,N
1702723055.5,286047000.6,N
1702723075.4,286047000.4,N
1702723095.2,286046999.9,N
1702723115.0,286046999.8,N
1702723115.9,286046999.8,N
1702723135.8,286047000.0,N
1702723155.6,286047000.4,N
1702723175.4,286047000.6,N
1702723195.3,286046998.1,N
1702723215.1,286047000.8,N
1702723235.9,286047000.3,N
1702723255.7,286047001.0,N
1702723275.5,286046998.3,N
1702723295.4,286046999.2,N
1702723315.2,286046999.3,N
1702723335.0,286047000.9,N
1702723335.9,286047000.9,N
1702723355.8,286047000.1,N
1702723375.6,286047002.8,N
1702723395.5,286046999.7,N
1702723415.3,286046999.9,N
1702723435.1,286047000.7,N
1702723455.9,286046999.4,N
1702723475.7,286047001.1,N
1702723495.5,286046998.3,N
1702723515.4,286047000.3,N
1702723535.2,286047000.8,N
1702723555.1,286046998.6,N
1702723556.0,286046998.6,N
1702723575.8,286046998.4,N
1702723595.6,286046999.2,N
1702723615.5,286046999.5,N
1702723635.3,286047001.2,N
1702723655.1,286047000.9,N
1702723675.9,286046998.1,N
1702723695.7,286046998.1,N
1702723715.6,286046999.9,N
1702723735.4,286047000.6,N
1702723755.2,286047000.5,N
1702723775.1,286047002.8,N
1702723776.0,286047002.8,N
1702723795.8,286047000.9,N
1702723815.7,286047001.0,N
1702723835.5,286047000.6,N
1702723855.3,286046998.3,N
1702723875.2,286046997.2,N
1702723895.0,286046995.5,Y
1702723895.9,286046995.5,P
1702723915.8,286046995.4,N
1702723935.6,286046997.4,N
1702723955.4,286046998.4,N
1702723975.3,286047001.1,N
1702723995.1,286047000.4,N
1702724015.8,286047001.2,N
1702724035.7,286047000.5,N
1702724055.5,286047002.3,N
1702724075.4,286047002.7,N
1702724095.2,286047000.1,N
1702724115.0,286047001.9,N
1702724115.9,286047001.9,N
1702724135.8,286047000.2,N
1702724155.6,286047001.2,N
1702724175.4,286046998.3,N
1702724195.3,286046998.6,N
1702724215.1,286047000.6,N
1702724235.9,286047002.7,N
1702724255.7,286047001.8,N
1702724275.5,286047001.8,N
1702724295.4,286047001.5,N
1702724315.2,286047002.4,N
1702724335.0,286047002.8,N
1702724335.9,286047002.8,N
1702724355.8,286047000.2,N
1702724375.6,286047000.0,N
1702724395.5,286047000.1,N
